map of KWI home
KWI - Airport
Location
City:  Kuwait City, Kuwait
Name:Kuwait International Airport
ICAO:OKBK
IATA:KWI

Details
Type:Airport (Aerodrome, Airfield)
Use:Public/Civil, Military, International (customs port of entry)
Latitude:2913'36"N (29.226667)
Longitude:4758'47"E (47.979722)
Elevation:206 ft (63 m)
Variation:3.54E (WMM2015 magnetic declination)
0.05 annual change
Runways:2
Longest:11483 × 148 ft (3500 × 45 m), paved

Time
Time Zone:UTC+3
Local Time:

Weather
METAR:OKBK 272200Z 17006KT CAVOK 17/13 Q1017 NOSIG
TAF:OKBK 271645Z 2718/2824 VRB03KT 8000 SCT040
BECMG 2721/2723 17010KT

Related Locations
Nearby:
Farthest:GMR: 11973 mi / 19269 km
Mangareva [Totegegie], Gambier Islands, PF

Find:

   beyond  
but within

Other Information
Maps:
NOTAMs:
Links:
Sources:

  
flag of Kuwait   

Airport Diagram

Airport diagram for KWI

Larger airport diagram (OBSOLETE) from NGA

Sectional Chart

Flight Planning
at skyvector.com

Satellite Image

Google Maps Satellite view

 

Copyright © 2004-2017 Karl L. Swartz. All rights reserved.
The Great Circle Mapper name and logo are trademarks of the Great Circle Mapper.
All other trademarks mentioned herein belong to their respective owners.
Please see credits for attibutions and further copyright information.

  Follow gcmap on Facebook Follow gcmap on Twitter Follow gcmap on Google+ GCmap on LinkedIn

hCard Microformat

Geo Microformat